sat.trackr.live / text

‹ back to catalog

STARLINK-31763

NORAD 59623 · 2024-080Y

PAYLOAD ACTIVE UNKNOWN

§ Identity

Operator
Country
US
Launch date
2024-04-28
Launch site
AFETR
Launch vehicle
Mass (kg)
RCS (m²)

Purposes: comms

External: N2YO · Heavens-Above · Gunter

§ Orbital elements

Epoch: 2026-05-24T21:36:54.222048Z

Period
94.27 min
Inclination
43.0033°
Eccentricity
0.0001342
Mean motion
15.27577944 rev/d
Perigee alt
482.1 km
Apogee alt
484.0 km
Semi-major
6,861.2 km
B*
1.3614e-5
RAAN
327.8959°
Arg perigee
276.6295°
Mean anomaly
83.4404°
Rev number
11,618

§ Raw data

STARLINK-317631 59623U 24080Y   26144.90062757  .00000112  00000+0  13614-4 0  99942 59623  43.0033 327.8959 0001342 276.6295  83.4404 15.27577944116181

JSON: /api/v1/satellites/59623 · /tle

For live sub-satellite position, see the globe view (requires WebGL).

§ Visibility from observer

Set your observer location to see the next 7 days of passes ≥ 10°. The values pass through the URL so the page stays shareable.

No JS? Fill the form by hand. The geolocation button needs JavaScript.